Regional Weather Roundup
Issued by NWS

Home | Current Version | Previous Version | Graphics & Text | Print | Product List | Glossary On
Versions: 1 2 3 4 5 6 7 8 9 10 11 12 13 14 15 16 17 18 19 20 21 22 23 24 25 26 27 28 29 30 31 32 33 34 35 36 37 38 39 40 41 42 43 44 45 46 47 48 49 50
000
ASUS43 KMPX 211901
RWRMN
WEATHER ROUNDUP FOR MINNESOTA
NATIONAL WEATHER SERVICE TWIN CITIES/CHANHASSEN MN
100 PM CST SUN JAN 21 2018


NOTE: "FAIR" INDICATES FEW OR NO CLOUDS BELOW 12,000 FEET WITH NO
SIGNIFICANT WEATHER AND/OR OBSTRUCTIONS TO VISIBILITY. N/A MEANS
CURRENT SKY AND/OR WEATHER CONDITIONS ARE NOT AVAILABLE.

MNZ060>063-068>070-212000-
   Twin Cities Metro

CITY           SKY/WX    TMP DP  RH WIND       PRES   REMARKS
TWIN CITIES    CLOUDY    39  31  72 N7        29.95F
ST PAUL        CLOUDY    39  30  70 N6        29.96F
CRYSTAL        CLOUDY    36  27  69 N5        29.95F
BLAINE         CLOUDY    37  30  75 N5        29.96S
LAKEVILLE      CLOUDY    37  30  75 N5        29.94S
EDEN PRAIRIE   CLOUDY    40  29  64 NE7       29.94S
SOUTH ST PAUL  CLOUDY    40  29  66 N3        29.95S
LAKE ELMO      CLOUDY    37  30  75 N5        29.96S
$$
MNZ001>005-007-008-013>017-022>024-027-028-212000-
   Northwest Minnesota

CITY           SKY/WX    TMP DP  RH WIND       PRES   REMARKS
BEMIDJI        CLOUDY    23  22  96 NW3       30.02S FOG
HALLOCK        CLOUDY    23  21  93 CALM      30.09S
ROSEAU         CLOUDY    25  19  80 N3        30.06F
WARROAD        CLOUDY    25  21  86 NW3       30.06F
THIEF RVR FALL CLOUDY    27  25  93 N6        30.07F WCI  20
CROOKSTON      FAIR      23  21  93 N3        30.09S FOG
FOSSTON        CLOUDY    25  23  93 N3        30.05S
DETROIT LAKES  CLOUDY    28  28 100 NE5       30.03S WCI  23
MOORHEAD       PTSUNNY   23  21  93 N7        30.07F FOG     WCI  15
PARK RAPIDS    FAIR      29  26  89 NW3       30.00S
MAHNOMEN       CLOUDY    25  24  96 N9        30.04S WCI  16
$$
MNZ006-009>011-018-025>026-212000-
   North Central Minnesota

CITY           SKY/WX    TMP DP  RH WIND       PRES   REMARKS
BAUDETTE       CLOUDY    25  24  96 NW6       30.03F FOG     WCI  18
FLAG ISLAND    CLOUDY    25  21  86 NW6       30.05S WCI  18
INTL FALLS     FOG       24  22  91 CALM      30.02F VSB 1/4
WASKISH        FOG       21  21 100 CALM      30.04F VSB 1/2
BIG FORK       CLOUDY    25  23  93 CALM      30.01S FOG
LONGVILLE      FAIR      28  25  86 CALM      30.00F
GRAND RAPIDS   FAIR      29  26  89 CALM      30.01F
CRANE LAKE     CLOUDY    21  21 100 NE3       30.04F FOG
ORR            CLOUDY    23  21  93 CALM      29.98F FOG
COOK           CLOUDY    25  23  93 CALM      30.00F FOG
WALKER         FAIR      26  22  84 N7        30.01R WCI  18
$$
MNZ012-019>021-037-212000-
   Northeast Minnesota

CITY           SKY/WX    TMP DP  RH WIND       PRES   REMARKS
DULUTH         FAIR      35  27  72 CALM      29.96S
HIBBING        FAIR      27  25  92 CALM      29.98S
EVELETH        FAIR      24  21  89 CALM      29.99S
DULUTH HARBOR  FAIR      30  28  93 CALM      30.01S FOG
TWO HARBORS    FAIR      43  30  61 CALM      29.96S
SILVER BAY     FAIR      34  30  86 S5        29.96S WCI  30
GRAND MARAIS     N/A     28  27  96 VRB3      30.03R
G MARAIS ARPRT FOG       27  23  86 S3        29.97R VSB 1/4
$$
MNZ029>031-032-039>041-046>048-054>057-064-212000-
   West Central Minnesota

CITY           SKY/WX    TMP DP  RH WIND       PRES   REMARKS
FERGUS FALLS   FAIR      30  27  86 N5        30.02S WCI  25
WHEATON        CLOUDY    30  25  80 NW8       30.06S WCI  23
MORRIS         MOSUNNY   30  28  93 NW8       30.00F WCI  23
ALEXANDRIA     CLOUDY    34  28  79 N3        30.00R
ELBOW LAKE     FAIR      32  28  88 N6        30.02S WCI  26
WADENA         FAIR      30  27  86 N5        30.00S WCI  25
GLENWOOD       FAIR      34  30  86 CALM      29.99F
APPLETON       CLOUDY    36  28  75 NW7       30.02R
BENSON         CLOUDY    36  30  80 N8        30.02S
ORTONVILLE     CLOUDY    30  27  86 NW8       30.02S WCI  23
MADISON        FLURRIES  36  32  87 NW10      30.01S
WILLMAR        FAIR      36  30  80 N7        30.00F
$$
MNZ033>034-036-042>043-049>051-058-059-212000-
   Central Minnesota

CITY           SKY/WX    TMP DP  RH WIND       PRES   REMARKS
ST CLOUD       CLOUDY    35  29  78 N6        29.98F WCI  30
SAUK CENTRE      N/A     34  28  79 CALM      29.99F
PAYNESVILLE    CLOUDY    35  31  85 N5        29.98F WCI  31
AITKIN         FAIR      30  25  80 CALM      29.98S
PINE RIVER     FAIR      27  25  93 CALM      30.03S
BRAINERD       FAIR      32  26  78 NW6       29.99F WCI  26
STAPLES        FAIR      30  27  86 CALM      30.00S
LONG PRAIRIE   FAIR      32  28  86 NW6       30.00R WCI  26
LITTLE FALLS   CLOUDY    34  25  69 NW3       30.00S
LITCHFIELD     CLOUDY    37  30  75 CALM      29.97F
BUFFALO        CLOUDY    35  28  76 CALM      29.98S
MAPLE LAKE     CLOUDY    36  31  82 MISG      29.98S
HUTCHINSON     CLOUDY    36  31  82 N7        29.97F
$$
MNZ037-044-045-052-053-212000-
   East Central Minnesota

CITY           SKY/WX    TMP DP  RH WIND       PRES   REMARKS
PRINCETON      FAIR      37  28  70 N5        29.98S
MORA           FAIR      36  28  75 CALM      29.99S
CAMBRIDGE        N/A     37  27  65 CALM      29.97F
RUSH CITY      CLOUDY    34  28  77 N6        29.97F WCI  29
MOOSE LAKE     CLOUDY    34  28  80 CALM      29.96F
HINCKLEY       FAIR      36  28  75 N3        29.97F
CLOQUET        FAIR      34  25  69 CALM      29.97S
MCGREGOR       FAIR      32  28  86 NW3       29.99S
$$
MNZ071>073-080-081-089-090-097-098-212000-
   Southwest Minnesota

CITY           SKY/WX    TMP DP  RH WIND       PRES   REMARKS
MONTEVIDEO     DRIZZLE   34  30  86 N14       29.99F WCI  24
GRANITE FALLS  CLOUDY    37  32  84 NW7       30.00S
CANBY          LGT SNOW  34  32  92 W12       30.00S WCI  25
MARSHALL       CLOUDY    35  30  82 N13       29.98S WCI  26
REDWOOD FALLS  CLOUDY    37  30  75 N8        29.96F
OLIVIA         CLOUDY    36  32  87 N6        29.97S
PIPESTONE      CLOUDY    36  30  80 NE9       29.92F
WINDOM         CLOUDY    41  21  45 N12       29.91F
WORTHINGTON    CLOUDY    39  31  72 N14       29.90F
JACKSON        CLOUDY    37  32  81 N12       29.89F
TRACY          CLOUDY    38  32  78 N12       29.95F
SLAYTON        CLOUDY    38  31  76 N9        29.93F
$$
MNZ065>067-074>077-082>085-091>093-212000-
   South Central Minnesota

CITY           SKY/WX    TMP DP  RH WIND       PRES   REMARKS
MANKATO        CLOUDY    40  31  70 N8        29.93F
NEW ULM        CLOUDY    39  28  65 NE6       29.93F
ST JAMES       CLOUDY    41  32  70 N10       29.92F
FAIRMONT       CLOUDY    37  32  82 N10       29.90F
FARIBAULT      CLOUDY    39  30  70 N6        29.93S
OWATONNA       FAIR      41  34  75 NE5       29.91F
WASECA         PTSUNNY   37  32  81 N8        29.92F
ALBERT LEA     FAIR      37  32  81 NE9       29.87F
$$
MNZ078>079-086>088-094>096-212000-
   Southeast Minnesota

CITY           SKY/WX    TMP DP  RH WIND       PRES   REMARKS
ROCHESTER      FAIR      38  32  79 NE6       29.89F
RED WING       CLOUDY    41  27  56 CALM      29.93S
STANTON        CLOUDY    38  32  79 N7        29.92S
DODGE CENTER   FAIR      37  30  75 NE6       29.90S
WINONA         FAIR      36  34  93 CALM      29.90F
AUSTIN         FAIR      37  30  75 NE9       29.88F
PRESTON        PTSUNNY   37  31  81 NE3       29.89F
$$
ABBREVIATIONS USED IN REMARKS
   TC - TEMPERATURES IN CELSIUS
  WCI - WIND CHILL INDEX
   HX - HEAT INDEX
  VSB - VISIBILITY
$$



USA.gov is the U.S. government's official web portal to all federal, state and local government web resources and services.